(19379) Labrecque = 1998 BR7

Discovered at Haleakala on 1998-01-24 by NEAT.
(19379) Labrecque = 1998 BR7

Steve LaBrecque (b. 1964) was responsible for the successful installation and operations of the NEAT/MSSS camera in 2000. At the Jet Propulsion Laboratory he has also worked on the Mars orbital camera. Earlier he developed and serviced shipboard oceanographic equipment at the Lamont Doherty Geological Observatory. [Ref: Minor Planet Circ. 42677]

Orbit

Orbit type: Main Belt

Note: WebGL enabled browser required.

epoch2024-03-31.0
epoch JD2460400.5
perihelion date2022-03-15.34048
perihelion JD2459653.84048
argument of perihelion (°)70.98625
ascending node (°)333.65032
inclination (°)23.08302
eccentricity0.2803264
perihelion distance (AU)1.6714456
Tisserand w.r.t. Jupiter3.4
ΔV w.r.t. Earth (km/sec)10.5
semimajor axis (AU)2.3225052
mean anomaly (°)207.91767
mean daily motion (°/day)0.27846380
aphelion distance (AU)2.974
period (years)3.54
P-vector [x]0.67798098
P-vector [y]0.43495173
P-vector [z]0.59258652
Q-vector [x]-0.71418472
Q-vector [y]0.58060557
Q-vector [z]0.39094420
absolute magnitude13.6
phase slope0.15
uncertainty0
referenceMPEC 2024-F02
observations used2485
oppositions19
arc length (days)11170
first opposition used1993
last opposition used2024
residual rms (arc-secs)0.56
perturbers coarse indicatorM-v
perturbers precise indicator003Ek
first observation date used1993-08-15.0
last observation date used2024-03-15.0
computer nameMPCLINUX
JD of orbit computation2456966.755966
perihelion JD uncertainty (days)4.4699E-05
argument of perihelion uncertainty (°)1.5143E-05
ascending node uncertainty (°)6.8925E-06
inclination uncertainty (°)6.1372E-06
eccentricity uncertainty 2.6998E-08
perihelion distance uncertainty (AU)6.4300E-08
Minimum Orbit Intersection Distances (in AU)
for orbit epoch: 2460400.5, reference: E2024-G88
Mercury1.38133
Venus1.04432
Earth0.79873
Mars0.49263
Jupiter2.85014
Saturn6.88658
Uranus15.8068
Neptune27.9278

Observations

2519 total observations over interval: 1993 08 15.40347 – 2024 03 15.315900
These data are available for download (format description).

Date (UT) J2000 RA J2000 Dec Magn Location Ref
1993 08 15.40347 01 07 43.38 +22 15 58.2   261 – Palomar Mountain-DSS MPS 22114
1993 08 15.46944 01 07 44.39 +22 17 43.1   261 – Palomar Mountain-DSS MPS 22114
1993 09 16.29444 00 56 01.26 +36 41 19.4   261 – Palomar Mountain-DSS MPS 22114
1993 09 16.32917 00 55 58.71 +36 42 11.8   261 – Palomar Mountain-DSS MPS 22114
1998 01 24.52242 10 41 53.92 +17 21 45.3 17.0 V 566 – Haleakala-NEAT/GEODSS MPS 442
1998 01 24.53247 10 41 53.19 +17 21 43.3 17.0 V 566 – Haleakala-NEAT/GEODSS MPS 442
1998 01 24.54376 10 41 52.37 +17 21 41.3 17.1 V 566 – Haleakala-NEAT/GEODSS MPS 442
1998 01 25.45280 10 40 47.37 +17 18 49.4 17.0 V 566 – Haleakala-NEAT/GEODSS MPS 442
1998 01 25.46313 10 40 46.59 +17 18 47.5 16.9 V 566 – Haleakala-NEAT/GEODSS MPS 442
1998 01 25.47327 10 40 45.84 +17 18 45.6 17.0 V 566 – Haleakala-NEAT/GEODSS MPS 442
1998 01 25.54559 10 40 40.38 +17 18 31.9 17.1 V 566 – Haleakala-NEAT/GEODSS MPS 442
1998 01 25.55557 10 40 39.62 +17 18 30.3 17.1 V 566 – Haleakala-NEAT/GEODSS MPS 442
1998 01 25.56604 10 40 38.84 +17 18 28.0 17.1 V 566 – Haleakala-NEAT/GEODSS MPS 442
1998 01 31.56402 10 32 50.45 +16 59 33.7 16.5   411 – Oizumi MPS 2550
1998 01 31.57749 10 32 49.29 +16 59 31.2   411 – Oizumi MPS 2550
1998 02 24.37408 09 57 12.69 +15 29 15.4 16.8 V 566 – Haleakala-NEAT/GEODSS MPS 913
1998 02 24.38464 09 57 11.76 +15 29 12.3 16.9 V 566 – Haleakala-NEAT/GEODSS MPS 913
1998 02 24.39471 09 57 10.84 +15 29 09.7 16.7 V 566 – Haleakala-NEAT/GEODSS MPS 913
1998 02 27.97963 09 52 08.76 +15 12 07.1   098 – Asiago Observatory, Cima Ekar MPS 667
1998 02 27.98831 09 52 08.11 +15 12 05.5   098 – Asiago Observatory, Cima Ekar MPS 667
1998 02 27.99699 09 52 07.38 +15 12 03.9   098 – Asiago Observatory, Cima Ekar MPS 667
1998 02 28.00913 09 52 06.35 +15 12 01.1 17.0 V 098 – Asiago Observatory, Cima Ekar MPS 667
1998 03 02.99116 09 48 09.56 +14 57 09.3   098 – Asiago Observatory, Cima Ekar MPS 667
1998 03 02.99984 09 48 08.89 +14 57 06.7   098 – Asiago Observatory, Cima Ekar MPS 667
1998 03 03.00852 09 48 08.28 +14 57 04.8   098 – Asiago Observatory, Cima Ekar MPS 667
1998 03 03.02137 09 48 07.19 +14 57 01.2 17.0 V 098 – Asiago Observatory, Cima Ekar MPS 667
1998 03 03.17442 09 47 55.78 +14 56 15.6   704 – Lincoln Laboratory ETS, New Mexico MPS 667
1998 03 03.19495 09 47 54.15 +14 56 09.4 17.8   704 – Lincoln Laboratory ETS, New Mexico MPS 667
1998 03 03.21529 09 47 52.56 +14 56 03.2   704 – Lincoln Laboratory ETS, New Mexico MPS 667
1998 03 03.23560 09 47 50.96 +14 55 57.3 17.5   704 – Lincoln Laboratory ETS, New Mexico MPS 667
1998 03 03.25619 09 47 49.32 +14 55 51.8 17.6   704 – Lincoln Laboratory ETS, New Mexico MPS 667
1998 03 04.15886 09 46 41.06 +14 51 13.0   704 – Lincoln Laboratory ETS, New Mexico MPS 667
1998 03 04.17904 09 46 39.52 +14 51 06.8   704 – Lincoln Laboratory ETS, New Mexico MPS 667
1998 03 04.19951 09 46 37.91 +14 51 00.1   704 – Lincoln Laboratory ETS, New Mexico MPS 667
1998 03 04.21979 09 46 36.32 +14 50 54.1   704 – Lincoln Laboratory ETS, New Mexico MPS 667
1998 03 04.23994 09 46 34.85 +14 50 47.9   704 – Lincoln Laboratory ETS, New Mexico MPS 667
1998 05 01.24652 09 29 42.92 +08 49 51.1 19.5 V 566 – Haleakala-NEAT/GEODSS MPS 913
1998 05 01.26638 09 29 43.51 +08 49 42.9 19.5 V 566 – Haleakala-NEAT/GEODSS MPS 913
1998 05 01.28889 09 29 44.17 +08 49 33.2 19.4 V 566 – Haleakala-NEAT/GEODSS MPS 913
1999 05 05.69302 14 47 52.62 -51 16 16.3 18.8 R 426 – Woomera MPS 4811
1999 05 06.54627 14 46 36.37 -51 15 15.3 18.4 R 426 – Woomera MPS 4811
1999 05 06.55966 14 46 35.12 -51 15 14.0 18.6 R 426 – Woomera MPS 4811
1999 05 06.57286 14 46 33.89 -51 15 13.0   426 – Woomera MPS 4811
2000 07 07.38275 23 58 35.34 -03 03 18.1 17.1   704 – Lincoln Laboratory ETS, New Mexico MPS 16385
2000 07 07.39502 23 58 35.84 -03 03 06.6 17.0   704 – Lincoln Laboratory ETS, New Mexico MPS 16385
2000 07 07.40737 23 58 36.29 -03 02 55.1 17.0   704 – Lincoln Laboratory ETS, New Mexico MPS 16385
2000 07 07.41952 23 58 36.75 -03 02 43.6 17.2   704 – Lincoln Laboratory ETS, New Mexico MPS 16385
2000 07 07.43181 23 58 37.24 -03 02 31.8 17.1   704 – Lincoln Laboratory ETS, New Mexico MPS 16385
2000 07 09.36807 23 59 53.55 -02 31 47.3 17.4   704 – Lincoln Laboratory ETS, New Mexico MPS 16385
2000 07 09.38269 23 59 54.03 -02 31 33.0 17.5   704 – Lincoln Laboratory ETS, New Mexico MPS 16385
2000 07 09.39829 23 59 54.60 -02 31 17.2 17.6   704 – Lincoln Laboratory ETS, New Mexico MPS 16385
2000 07 09.41202 23 59 55.05 -02 31 04.1 17.6   704 – Lincoln Laboratory ETS, New Mexico MPS 16385
2000 07 09.42433 23 59 55.51 -02 30 52.4 17.3   704 – Lincoln Laboratory ETS, New Mexico MPS 16385
2000 07 23.41792 00 06 14.24 +01 20 52.7 17.7   704 – Lincoln Laboratory ETS, New Mexico MPS 16385
2000 07 23.43135 00 06 14.41 +01 21 05.8 17.7   704 – Lincoln Laboratory ETS, New Mexico MPS 16385
2000 07 23.44478 00 06 14.62 +01 21 19.6 17.6   704 – Lincoln Laboratory ETS, New Mexico MPS 16385
2000 07 31.36659 00 07 11.36 +03 40 31.3 17.7   704 – Lincoln Laboratory ETS, New Mexico MPS 17418
2000 07 31.37861 00 07 11.31 +03 40 44.3 17.9   704 – Lincoln Laboratory ETS, New Mexico MPS 17418
2000 07 31.39064 00 07 11.26 +03 40 57.2 17.8   704 – Lincoln Laboratory ETS, New Mexico MPS 17418
2000 07 31.40266 00 07 11.18 +03 41 10.2 17.8   704 – Lincoln Laboratory ETS, New Mexico MPS 17418
2000 07 31.41471 00 07 11.15 +03 41 23.3 17.7   704 – Lincoln Laboratory ETS, New Mexico MPS 17418
2000 08 03.36964 00 06 57.82 +04 34 48.3 16.8   704 – Lincoln Laboratory ETS, New Mexico MPS 17418
2000 08 03.38380 00 06 57.58 +04 35 03.8 16.2   704 – Lincoln Laboratory ETS, New Mexico MPS 17418
2000 08 03.39790 00 06 57.43 +04 35 19.1 16.3   704 – Lincoln Laboratory ETS, New Mexico MPS 17418
2000 08 03.41204 00 06 57.27 +04 35 34.7 15.8   704 – Lincoln Laboratory ETS, New Mexico MPS 17418
2000 08 03.42616 00 06 57.14 +04 35 50.5 16.0   704 – Lincoln Laboratory ETS, New Mexico MPS 17418
2000 08 08.40786 00 05 47.507 +06 07 45.77 14.95 J I02 – Cerro Tololo Observatory, La Serena--2MASS MPS 80809
2000 09 01.27706 23 45 34.07 +13 40 16.9 15.3   704 – Lincoln Laboratory ETS, New Mexico MPS 17418
2000 09 01.29149 23 45 32.83 +13 40 33.2 15.7   704 – Lincoln Laboratory ETS, New Mexico MPS 17418
2000 09 01.30593 23 45 31.64 +13 40 49.1 16.2   704 – Lincoln Laboratory ETS, New Mexico MPS 17418
2000 09 01.32001 23 45 30.39 +13 41 04.7 15.4   704 – Lincoln Laboratory ETS, New Mexico MPS 17418
2000 09 01.33655 23 45 28.99 +13 41 23.0   704 – Lincoln Laboratory ETS, New Mexico MPS 17418
2000 09 08.19630 23 35 21.11 +15 43 24.6 15.2 V 739 – Sunflower Observatory, Olathe MPS 17418
2000 09 08.20024 23 35 20.70 +15 43 28.5 15.0 V 739 – Sunflower Observatory, Olathe MPS 17418
2000 09 08.20413 23 35 20.34 +15 43 32.6 15.1 V 739 – Sunflower Observatory, Olathe MPS 17418
2000 09 22.29151 23 11 25.16 +19 14 37.2 15.0   704 – Lincoln Laboratory ETS, New Mexico MPS 18934
2000 09 22.30622 23 11 23.56 +19 14 48.2 15.5   704 – Lincoln Laboratory ETS, New Mexico MPS 18934
2000 09 22.32101 23 11 21.97 +19 14 59.0   704 – Lincoln Laboratory ETS, New Mexico MPS 18934
2000 09 22.35046 23 11 18.84 +19 15 20.4 15.4   704 – Lincoln Laboratory ETS, New Mexico MPS 18934
2000 09 22.83361 23 10 29.35 +19 21 18.3 14.7 R 628 – Mulheim-Ruhr MPS 18934
2000 09 22.84667 23 10 27.95 +19 21 28.0 14.8 R 628 – Mulheim-Ruhr MPS 18934
2000 09 22.85756 23 10 26.82 +19 21 36.2 14.9 R 628 – Mulheim-Ruhr MPS 18934
2000 09 22.86845 23 10 25.65 +19 21 44.3 14.8 R 628 – Mulheim-Ruhr MPS 18934
2000 09 22.88045 23 10 24.38 +19 21 53.2 14.8 R 628 – Mulheim-Ruhr MPS 18934
2000 09 25.23913 23 06 21.95 +19 49 54.7 14.7 R 699 – Lowell Observatory-LONEOS MPS 30634
2000 09 25.26242 23 06 19.50 +19 50 10.8   699 – Lowell Observatory-LONEOS MPS 30634
